Tracking 22993 objects as of 12-May-2021
HD Live streaming from Space Station
objects crossing your sky now

STARLINK-2133

Track STARLINK-2133 now!
10-day predictions
STARLINK-2133 is classified as:


NORAD ID: 47406
Int'l Code: 2021-005BK
Perigee: 461.0 km
Apogee: 462.5 km
Inclination: 53.1 °
Period: 93.7 minutes
Semi major axis: 6832 km
RCS: Unknown
Launch date: January 20, 2021
Source: United States (US)
Launch site: AIR FORCE EASTERN TEST RANGE (AFETR)
aabbcc
Your satellite tracking list
Your tracking list is empty




NASA's NSSDC Master Catalog

Two Line Element Set (TLE):
1 47406U 21005BK  21131.78891800 -.00530691  00000-0 -15414-1 0  9990
2 47406  53.0536  26.8975 0001117  79.0253 281.0875 15.37126072 18349
Source of the keplerian elements: AFSPC